EW7894 Weather Reports


time (UTC)temp
C
wind
direction
speed
KPH
gust
KPH
rain 1hr
cm
rain 24hr
cm
rain mn
cm
humidity
%
barometer
mb
20200229101505 18 33 1.6 0.0 0.00 0.00 0.00 89 1014.9
20200229100006 19 33 3.2 0.0 0.00 0.00 0.00 88 1014.9
20200229094503 19 24 4.8 0.0 0.00 0.00 0.00 87 1015.1
20200229093011 19 348 0.0 0.0 0.00 0.00 0.00 86 1015.1
20200229091502 19 346 0.0 0.0 0.00 0.00 0.00 86 1015.2
20200229090005 19 346 0.0 0.0 0.00 0.00 0.00 85 1015.5
20200229084503 19 346 0.0 0.0 0.00 0.00 0.00 84 1015.5
20200229083003 20 298 0.0 0.0 0.00 0.00 0.00 83 1015.6
20200229081707 20 298 0.0 0.0 0.00 0.00 0.00 83 1015.6
20200229080151 20 298 0.0 0.0 0.00 0.00 0.00 82 1015.6
20200229074656 20 298 0.0 0.0 0.00 0.00 0.00 82 1015.6
20200229073236 20 298 0.0 0.0 0.00 0.00 0.00 82 1015.6
20200229071715 20 298 0.0 0.0 0.00 0.00 0.00 81 1015.7
20200229070232 20 298 0.0 0.0 0.00 0.00 0.00 81 1015.5
20200229064707 20 299 0.0 0.0 0.00 0.00 0.00 81 1015.7
20200229063110 20 300 0.0 0.0 0.00 0.00 0.00 81 1015.5
20200229061737 20 300 0.0 0.0 0.00 0.00 0.00 80 1015.7
20200229060136 20 300 0.0 0.0 0.00 0.00 0.00 80 1015.7
20200229054656 21 302 0.0 0.0 0.00 0.00 0.00 79 1015.7
20200229053135 21 306 0.0 0.0 0.00 0.00 0.00 79 1015.8
20200229051720 21 307 0.0 0.0 0.00 0.00 0.00 79 1015.9
20200229050146 21 306 0.0 0.0 0.00 0.00 0.00 79 1016.0
20200229044654 21 297 6.4 0.0 0.00 0.00 0.00 81 1016.0
20200229043236 21 293 8.0 0.0 0.00 0.00 0.00 82 1016.0
20200229041600 21 303 4.8 0.0 0.00 0.00 0.00 82 1016.1
20200229040203 21 311 9.7 0.0 0.00 0.00 0.00 81 1016.1
20200229034635 21 314 6.4 0.0 0.00 0.00 0.00 81 1016.1
20200229033119 21 300 12.9 0.0 0.00 0.00 0.00 81 1016.1
20200229031614 21 323 16.1 0.0 0.00 0.00 0.00 82 1015.8
20200229030201 21 276 16.1 0.0 0.00 0.00 0.00 82 1015.7
20200229024552 22 277 14.5 0.0 0.00 0.00 0.00 81 1015.4
20200229023108 22 265 12.9 0.0 0.00 0.00 0.00 82 1015.1
20200229021714 22 287 11.3 0.0 0.00 0.00 0.00 81 1014.9
20200229020040 22 284 12.9 0.0 0.00 0.00 0.00 80 1014.6
20200229014557 22 291 8.0 0.0 0.00 0.00 0.00 81 1014.4
20200229013147 22 252 12.9 0.0 0.00 0.00 0.00 81 1014.3
20200229011619 22 272 9.7 0.0 0.00 0.00 0.00 81 1014.1
20200229010134 22 254 9.7 0.0 0.00 0.00 0.00 80 1014.1
20200229004547 23 276 11.3 0.0 0.00 0.00 0.00 79 1013.9
20200229003103 23 279 12.9 0.0 0.00 0.00 0.00 78 1013.9
20200229001640 23 291 16.1 0.0 0.00 0.00 0.00 80 1013.9
20200229000109 23 271 17.7 0.0 0.00 0.00 0.00 79 1013.8
20200228234606 23 263 14.5 0.0 0.00 0.00 0.00 79 1013.7
20200228233136 23 265 16.1 0.0 0.00 0.00 0.00 79 1013.8
20200228231600 23 265 16.1 0.0 0.00 0.00 0.00 75 1014.0
20200228230043 23 271 16.1 0.0 0.00 0.00 0.00 74 1013.8
20200228224639 23 256 17.7 0.0 0.00 0.00 0.00 74 1013.9
20200228223100 23 260 16.1 0.0 0.00 0.00 0.00 75 1013.9
20200228221710 23 275 16.1 0.0 0.00 0.00 0.00 74 1014.0
20200228220055 23 273 14.5 0.0 0.00 0.00 0.00 75 1013.9
20200228214613 23 262 19.3 0.0 0.00 0.00 0.00 79 1014.3
20200228213115 23 263 19.3 0.0 0.00 0.00 0.00 80 1014.3
20200228211637 23 269 19.3 0.0 0.00 0.00 0.00 81 1014.7
20200228210054 22 261 20.9 0.0 0.00 0.00 0.00 83 1014.9
20200228204553 22 265 20.9 0.0 0.00 0.00 0.00 83 1014.9
20200228203117 22 270 19.3 0.0 0.00 0.00 0.00 82 1015.0
20200228201545 22 254 19.3 0.0 0.00 0.00 0.00 80 1015.1
20200228200031 22 267 17.7 0.0 0.00 0.00 0.00 78 1015.0
20200228194628 22 277 14.5 0.0 0.00 0.00 0.00 78 1015.1
20200228193030 23 259 12.9 0.0 0.00 0.00 0.00 77 1015.4
20200228191612 23 248 11.3 0.0 0.00 0.00 0.00 77 1015.9
20200228190041 23 253 11.3 0.0 0.00 0.00 0.00 78 1016.1
20200228184648 22 252 9.7 0.0 0.00 0.00 0.00 76 1016.4
20200228183025 22 248 12.9 0.0 0.00 0.00 0.00 77 1016.6
20200228181518 22 249 8.0 0.0 0.00 0.00 0.00 75 1016.8
20200228180030 22 250 9.7 0.0 0.00 0.00 0.00 76 1017.0
20200228174548 22 258 8.0 0.0 0.00 0.00 0.00 78 1017.2
20200228173013 22 252 9.7 0.0 0.00 0.00 0.00 79 1017.4
20200228170009 22 251 8.0 0.0 0.00 0.00 0.00 72 1017.4
20200228164501 22 259 4.8 0.0 0.00 0.00 0.00 74 1017.2
20200228163140 22 233 4.8 0.0 0.00 0.00 0.00 75 1017.3
20200228161811 22 164 1.6 0.0 0.00 0.00 0.00 76 1017.2
20200228160141 22 158 3.2 0.0 0.00 0.00 0.00 76 1017.0
20200228154711 22 90 0.0 0.0 0.00 0.00 0.00 75 1016.9
20200228153140 22 59 0.0 0.0 0.00 0.00 0.00 76 1016.7
20200228151609 21 57 0.0 0.0 0.00 0.00 0.00 79 1016.7
20200228150154 20 62 0.0 0.0 0.00 0.00 0.00 82 1016.4
20200228144543 19 62 0.0 0.0 0.00 0.00 0.00 84 1016.3
20200228143042 18 62 1.6 0.0 0.00 0.00 0.00 86 1016.1
20200228141557 17 63 1.6 0.0 0.00 0.00 0.00 87 1016.0
20200228140048 17 76 0.0 0.0 0.00 0.00 0.00 88 1015.7
20200228134550 -17 0.0 0.0 0.00 0.00 0.00 1015.7
20200228133048 -17 0.0 0.0 0.00 0.00 0.00 1015.7
20200228131545 -17 0.0 0.0 0.00 0.00 0.00 1015.4
20200228130023 -17 0.0 0.0 0.00 0.00 0.00 1015.4
20200228124512 -17 0.0 0.0 0.00 0.00 0.00 1015.0
20200228123013 -17 0.0 0.0 0.00 0.00 0.00 1014.9
20200228121710 17 77 0.0 0.0 0.00 0.00 0.00 89 1014.9
20200228120021 17 77 0.0 0.0 0.00 0.00 0.00 89 1014.8
20200228114503 17 77 0.0 0.0 0.00 0.00 0.00 89 1014.9
20200228113001 17 77 0.0 0.0 0.00 0.00 0.00 90 1014.7
20200228110026 17 77 0.0 0.0 0.00 0.00 0.00 89 1014.7
20200228104514 17 76 0.0 0.0 0.00 0.00 0.00 89 1014.8
20200228103019 17 77 0.0 0.0 0.00 0.00 0.00 90 1014.8